Theta_e
330 328 326 326 326 325 325 324 323 323 323 322 322 323 324 324 324 323 321 317 316 318 320 321 321 321 319 318 318 317 317 318 318 318 318 318 317 317 318 317 317 317 315 315 314 314 315 315 316 316 317 317 317 317 317 317 318 320 317 312 309 309 308 308 307 307 308 307 307 307 307 307 307 308 308 308 308 308 308 307 307 307 306 307 308
329 327 325 325 326 325 324 324 323 323 323 323 322 323 324 324 323 322 318 316 316 318 319 320 320 319 318 317 317 316 316 316 316 317 317 317 316 317 318 318 318 317 316 315 315 314 315 315 315 315 315 316 317 316 316 316 316 317 316 313 311 309 308 309 308 308 308 307 307 307 307 307 307 307 308 308 309 309 308 308 308 307 307 307 308
328 327 326 326 326 325 324 323 323 323 323 323 322 323 323 323 322 320 317 316 316 316 316 317 317 317 316 316 316 315 315 314 314 316 315 316 316 316 318 318 317 316 316 317 316 315 315 315 314 314 314 315 316 316 316 316 316 315 314 312 311 309 309 310 309 308 308 308 308 308 307 307 307 308 308 308 308 308 308 308 308 307 308 308 307
327 325 324 325 326 325 324 323 323 322 322 321 321 322 322 322 321 319 317 316 315 314 314 314 315 315 315 315 315 314 313 313 313 314 314 314 314 316 317 317 317 317 317 317 316 315 315 315 314 314 313 313 314 315 316 316 316 315 313 312 311 311 311 311 311 311 309 308 309 309 309 309 309 309 308 308 308 308 308 309 308 309 309 308 307
325 324 324 324 325 325 325 324 324 323 321 321 320 321 321 321 320 319 317 316 315 314 314 314 314 314 314 314 315 314 313 313 313 313 313 313 314 315 317 317 317 317 317 316 316 315 315 314 314 313 313 313 313 314 315 316 316 316 315 314 314 313 313 312 312 312 311 309 309 310 310 310 311 310 309 308 308 309 309 309 309 309 308 308 307
324 324 325 325 325 325 324 324 324 321 319 320 320 320 321 321 320 319 318 316 316 315 314 314 313 314 314 314 315 314 314 314 313 313 314 314 314 315 316 317 317 317 316 316 315 315 314 314 314 314 313 313 313 313 314 315 315 315 316 315 315 314 314 313 313 313 312 310 309 310 310 311 312 311 309 308 308 309 310 310 310 309 309 308 307
324 323 324 325 324 323 322 323 323 322 320 321 321 320 320 320 319 319 319 317 317 316 315 314 314 313 313 314 315 315 315 315 314 314 315 315 314 315 316 316 317 316 316 316 315 315 314 314 314 315 314 313 313 313 313 313 313 314 315 315 315 315 315 314 314 314 313 311 310 310 310 311 312 311 310 308 309 310 310 310 310 309 308 308 308
323 322 323 324 323 322 321 322 323 322 320 321 322 321 319 320 319 319 319 317 316 317 315 314 314 314 313 314 315 315 315 315 314 315 315 315 315 316 316 316 316 315 315 315 314 314 313 313 313 313 313 313 313 313 313 312 312 313 313 313 314 314 314 314 314 314 313 312 311 311 311 311 312 311 310 309 309 310 310 310 309 309 308 307 307
323 322 322 322 322 321 321 322 322 320 319 321 323 323 320 319 319 319 319 317 316 317 316 314 315 315 313 313 314 315 315 314 314 315 316 315 315 315 315 315 315 315 315 314 314 314 314 314 313 312 312 312 312 313 313 313 312 312 313 313 313 313 314 313 313 314 314 313 312 312 313 312 311 310 310 310 310 310 310 309 309 308 307 307 306
322 322 322 321 321 321 321 322 321 320 321 322 323 323 321 320 319 319 319 317 316 317 316 314 315 315 315 314 313 314 315 314 314 314 315 316 315 315 314 315 315 315 314 314 314 315 315 315 315 315 314 313 313 314 314 314 313 313 312 313 313 313 313 313 313 313 313 313 314 314 313 312 311 310 311 310 310 309 309 309 308 307 307 306 305
322 322 322 322 322 322 321 321 321 321 322 323 323 322 321 321 321 321 321 320 319 318 317 316 315 315 315 314 314 314 314 315 315 314 314 315 315 315 315 315 315 315 315 315 315 316 316 316 316 316 316 315 315 315 316 316 315 314 314 313 313 313 313 313 312 313 313 313 314 314 313 312 311 311 310 309 309 309 308 308 307 306 305 303 301
316 319 321 322 322 322 321 321 321 321 322 322 321 322 322 322 322 322 321 321 321 320 319 318 318 317 316 315 315 315 315 315 315 315 315 315 315 316 316 315 316 316 316 316 316 316 316 316 317 316 316 316 316 316 317 317 317 316 316 316 315 313 313 313 312 312 313 314 314 313 312 312 310 310 310 309 309 308 308 307 306 304 302 300 298
306 309 312 314 314 316 318 320 321 321 321 321 321 321 321 322 322 322 321 322 322 322 321 320 320 319 318 317 316 315 315 316 316 315 315 316 316 317 317 317 317 317 317 317 317 317 316 316 317 317 317 317 317 317 317 317 317 317 317 317 316 315 314 313 313 312 313 314 314 313 312 311 311 310 310 309 309 308 306 305 303 301 300 299 298
303 303 303 304 304 306 309 312 314 316 317 318 318 319 320 321 320 320 320 320 321 322 322 322 322 321 320 319 319 318 317 317 317 316 315 316 317 317 317 318 318 318 318 318 318 318 318 318 318 318 318 318 318 318 318 318 317 317 317 317 316 316 315 315 314 313 314 314 314 313 312 312 311 310 310 309 308 306 305 303 301 300 299 299 298
302 302 302 302 302 303 304 304 306 307 308 308 310 312 316 318 320 320 320 320 320 321 321 321 322 321 321 321 321 320 320 319 319 318 317 317 317 317 317 318 319 319 319 319 319 320 320 320 319 319 319 319 319 319 319 319 318 317 316 316 316 315 315 315 314 314 314 313 313 313 312 311 311 310 308 307 306 305 304 302 300 299 299 299 298
301 301 301 301 302 302 302 303 303 304 304 305 305 306 308 310 312 314 314 315 316 318 319 319 320 320 321 322 322 322 322 321 321 321 320 320 320 319 319 319 320 320 321 321 321 321 320 321 321 320 320 320 319 318 318 319 318 317 316 316 315 315 315 315 315 314 313 311 311 311 311 310 309 308 306 305 304 303 302 301 300 299 299 299 298
301 300 300 300 301 301 301 302 302 302 303 303 303 304 304 304 305 306 306 307 308 309 310 313 316 318 320 321 322 322 322 323 323 322 322 322 322 321 321 321 321 321 321 322 322 321 319 320 322 322 321 322 321 319 318 319 318 317 316 315 314 314 314 314 314 313 311 309 309 310 310 309 307 306 305 304 303 302 301 300 299 299 299 299 298
300 300 300 300 300 300 300 301 301 301 301 302 302 302 303 303 303 303 303 304 304 304 304 306 308 311 314 317 320 321 322 323 323 323 322 322 322 323 322 322 321 321 320 320 320 320 319 320 321 322 321 321 321 320 319 319 318 317 316 315 313 313 313 312 312 311 309 309 308 308 307 306 305 304 303 302 301 301 300 300 299 299 299 298 298
300 300 300 300 300 300 300 300 300 300 300 300 301 301 301 302 302 303 303 303 303 303 303 304 305 306 308 310 313 316 319 321 322 321 322 322 322 322 323 323 322 321 321 320 319 319 319 320 319 320 320 320 319 319 318 318 318 317 317 315 313 312 312 311 311 310 309 308 307 306 305 304 304 302 302 301 301 301 301 301 300 299 298 298 297
300 300 300 300 300 300 300 300 300 300 300 300 300 300 300 300 301 301 302 302 302 302 303 303 304 304 305 306 307 309 313 317 320 321 321 321 321 321 322 322 322 321 321 320 318 318 318 318 318 318 318 318 317 317 318 318 318 318 317 315 314 313 312 310 310 310 309 307 306 305 304 303 302 301 301 301 301 301 301 301 300 298 297 296 295
299 299 299 299 299 299 299 299 299 299 299 299 299 299 299 300 300 300 300 301 301 302 302 302 303 303 304 304 305 305 307 311 316 319 321 321 321 321 321 321 321 320 320 319 319 318 317 317 318 317 317 317 317 317 318 318 317 318 317 316 315 315 312 310 309 308 307 306 305 304 303 302 302 301 302 302 302 302 301 300 298 297 296 295 295
299 299 299 299 299 299 298 298 298 298 298 298 298 299 299 299 299 299 300 300 300 301 301 301 302 302 303 303 304 304 305 306 309 314 317 319 320 320 320 320 319 319 319 319 319 318 318 318 318 317 317 317 317 317 317 317 317 317 317 316 315 314 312 310 308 307 306 305 304 303 302 302 301 301 300 301 301 300 299 297 296 296 295 295 294
299 299 298 298 298 298 298 298 298 298 298 298 297 298 298 298 298 298 298 299 299 299 300 300 300 301 301 302 302 303 304 305 306 308 312 315 318 319 319 319 319 319 319 319 319 319 318 318 318 318 317 317 317 317 316 316 316 317 316 316 314 313 311 309 307 306 305 304 303 302 301 300 300 299 299 299 299 298 297 296 296 295 295 294 294
298 298 298 298 297 297 297 297 297 297 297 297 297 297 297 297 297 297 297 297 297 298 298 298 298 299 299 300 301 301 302 302 303 305 307 310 314 316 318 319 319 319 319 318 318 319 319 319 318 316 316 315 315 315 316 316 316 316 316 315 314 312 310 308 306 305 304 302 301 300 299 299 299 298 298 297 297 296 296 296 295 295 294 294 294
297 297 297 297 297 297 297 297 297 297 297 296 296 296 296 296 296 296 296 297 297 297 297 297 297 297 298 298 299 300 300 301 302 303 305 307 310 313 316 318 319 319 319 318 318 318 318 317 316 315 314 313 312 314 316 316 315 315 315 314 313 311 309 307 305 303 302 301 300 299 298 298 298 297 297 296 296 296 296 295 295 294 294 294 293
296 296 296 296 296 296 296 296 296 296 296 296 296 296 296 296 296 296 296 296 296 296 296 296 296 296 297 297 298 299 300 300 301 302 304 307 309 311 314 317 318 318 317 317 317 317 317 315 314 313 312 311 311 314 315 314 313 313 312 312 311 310 308 306 303 302 301 300 299 298 297 297 297 296 296 296 295 295 295 294 294 294 294 293 293
295 295 295 295 295 296 296 296 296 296 296 296 295 295 295 295 295 296 296 295 295 295 295 295 295 296 296 296 297 298 299 300 300 301 302 304 307 310 313 315 316 316 316 316 315 315 314 313 312 312 311 310 311 312 311 311 310 310 309 309 308 307 305 304 302 301 300 299 298 297 296 296 296 296 295 295 295 294 294 294 294 293 293 293 292
294 294 294 294 294 295 295 295 295 295 295 294 294 294 294 294 295 295 296 295 295 295 294 294 294 295 295 296 296 297 298 299 300 301 301 302 304 307 310 313 312 311 312 313 314 313 310 306 307 309 309 309 308 308 307 307 307 306 305 304 304 303 302 302 301 300 299 298 297 296 296 295 295 295 295 294 294 294 293 293 293 293 292 292 292
295 294 294 295 295 295 295 294 294 294 294 294 295 294 294 294 294 295 295 295 295 295 294 294 294 294 295 296 296 296 297 299 300 301 301 302 304 305 308 310 310 310 309 310 312 312 307 302 302 304 307 307 305 304 304 304 303 303 303 302 302 301 301 300 300 298 298 297 296 295 295 295 294 294 294 294 294 293 293 293 293 292 292 291 291
295 295 295 295 295 296 296 295 295 295 295 295 295 294 294 294 294 294 295 295 295 295 295 294 294 294 295 296 296 296 296 298 300 301 301 302 304 305 307 308 309 310 310 309 309 308 305 302 301 301 302 303 302 301 301 301 301 300 301 300 300 300 299 299 299 297 297 296 296 295 295 294 294 294 294 294 293 293 293 292 292 292 291 291 290
296 296 296 296 296 296 296 296 296 296 295 295 295 294 294 294 294 294 294 294 294 294 294 294 294 294 294 295 296 296 297 298 300 301 301 302 303 305 306 308 308 309 309 308 306 304 302 301 299 297 297 298 298 297 298 300 300 300 299 299 299 298 298 297 297 296 296 296 295 294 294 294 294 294 294 293 293 293 292 292 292 291 291 291 290
296 295 296 296 296 296 296 296 296 295 295 295 295 295 295 294 293 293 293 293 293 293 293 294 294 294 294 294 295 295 297 299 300 301 302 302 304 305 307 307 307 307 307 306 305 303 301 299 298 296 295 297 298 297 297 299 300 299 298 297 297 297 297 297 296 296 296 295 294 293 293 294 294 294 293 293 293 292 292 292 291 291 291 290 290
295 295 296 296 296 296 295 295 295 295 295 295 295 294 294 293 292 292 292 292 292 292 293 293 293 293 293 293 294 295 295 298 300 302 303 303 304 305 306 306 306 305 304 304 303 302 299 298 298 296 295 297 298 297 296 298 299 298 298 297 297 297 296 296 295 295 294 293 293 293 294 294 293 293 293 292 292 292 292 291 291 291 290 290 289
295 296 296 296 295 295 295 295 295 295 295 295 294 294 293 292 292 292 292 292 292 292 292 293 293 293 292 293 294 295 295 297 300 302 303 304 304 305 306 305 304 302 302 303 303 301 298 297 297 297 297 297 297 297 297 298 298 298 297 297 296 295 295 294 294 294 293 293 293 293 293 293 293 293 292 292 292 292 291 291 290 290 290 290 290
296 296 296 295 295 295 295 295 295 295 295 295 294 294 294 293 293 293 292 292 293 293 293 293 293 293 293 294 295 295 296 298 300 301 302 304 303 303 304 304 302 299 299 300 300 299 298 297 297 297 298 298 297 297 298 298 298 297 297 296 295 294 294 293 293 293 293 292 293 293 293 293 292 292 292 292 292 291 291 290 290 289 289 290 290
295 295 295 295 295 296 296 296 296 295 295 295 295 295 295 294 294 294 293 293 293 293 293 293 293 294 294 295 296 296 297 299 299 300 301 302 302 300 300 301 301 299 297 297 298 297 297 297 297 297 298 298 298 298 299 298 297 297 296 295 294 294 293 293 293 292 292 292 293 293 293 292 292 292 292 292 291 291 290 290 289 289 290 290 290
295 295 295 295 296 296 296 296 296 296 296 296 296 296 296 295 295 295 294 293 293 293 293 294 294 294 295 296 296 297 298 298 299 299 300 301 301 299 297 298 299 299 298 298 298 298 297 298 298 298 298 298 298 299 298 297 297 297 296 295 294 294 293 293 292 292 292 293 293 292 292 292 292 292 292 291 291 290 290 290 289 290 290 290 290
295 295 295 295 296 296 296 297 296 296 297 296 296 296 296 296 295 295 294 294 294 294 294 294 294 294 295 295 295 296 296 297 297 299 299 300 299 298 296 295 297 298 299 299 299 298 298 298 299 299 299 299 298 298 298 298 297 296 295 294 294 293 292 292 292 292 292 292 292 292 292 292 291 291 291 290 290 290 290 290 289 289 290 290 290
295 295 295 295 296 296 296 297 296 296 296 296 296 296 296 295 295 295 294 294 294 294 294 295 294 294 294 294 294 294 295 295 295 297 298 298 297 296 296 296 296 297 298 299 298 298 298 298 299 299 299 299 298 298 297 297 296 295 294 293 293 292 292 292 292 292 292 292 292 292 292 291 291 290 290 290 290 290 289 289 289 289 290 290 290
295 295 295 295 295 295 296 296 296 296 296 296 295 295 296 296 296 295 295 295 295 295 295 295 294 294 294 294 294 294 294 295 295 296 297 297 297 297 297 297 297 297 298 299 298 298 298 299 299 299 298 298 297 296 296 296 296 294 293 293 292 292 292 292 292 292 292 292 292 291 291 291 290 290 290 290 290 289 289 289 290 290 290 290 290
295 295 295 295 295 295 295 295 296 296 296 295 295 296 296 296 296 296 296 295 294 294 294 294 293 293 294 294 294 295 295 295 295 296 297 297 297 298 298 298 298 298 298 298 299 299 299 300 300 299 297 297 296 296 295 295 294 293 292 292 292 292 292 292 292 292 292 292 291 291 290 290 290 290 290 290 290 289 289 290 290 290 290 290 290
295 294 294 295 295 295 295 295 295 295 295 295 295 296 296 296 295 295 295 294 294 293 293 293 293 293 294 294 294 294 295 295 295 295 296 296 297 297 298 298 297 297 298 298 298 299 299 299 298 298 296 295 295 295 294 293 293 292 292 291 291 292 292 292 292 292 291 291 290 290 290 290 290 290 290 290 290 290 290 290 290 289 289 290 290
294 294 294 294 294 294 294 294 295 295 295 295 295 296 296 295 294 294 294 294 293 293 293 293 293 293 293 294 294 294 295 295 295 295 295 295 295 295 296 296 295 296 297 297 297 297 297 296 296 295 295 294 294 294 293 293 293 292 291 291 291 291 292 291 291 291 291 290 289 289 290 290 290 290 290 289 290 290 290 290 289 289 290 290 290
294 294 294 294 294 294 294 294 294 294 294 294 295 295 295 295 294 293 293 293 293 293 293 293 293 294 293 294 294 294 294 294 294 294 294 294 293 293 293 293 293 294 295 295 295 295 296 295 294 294 294 294 294 293 293 293 293 292 291 291 291 291 291 291 291 291 290 289 289 289 289 289 289 289 289 290 290 290 290 289 289 290 290 290 290
294 294 294 293 293 293 293 294 294 294 294 294 294 294 294 294 294 293 293 293 293 293 293 293 293 293 293 293 293 293 292 292 292 292 292 292 291 291 291 291 291 292 292 292 293 294 294 294 293 293 293 293 293 293 292 292 292 292 292 292 292 292 292 292 291 290 289 289 289 289 289 289 289 289 289 290 290 290 289 289 290 290 290 290 291
294 293 293 293 293 292 293 293 293 294 294 294 294 294 294 293 293 293 293 293 293 293 293 293 293 292 292 292 291 291 291 291 290 290 290 290 289 289 289 289 290 290 290 290 291 292 292 292 292 292 292 292 291 291 291 291 291 291 291 291 291 290 290 290 289 289 289 289 288 288 288 289 289 289 289 289 289 289 289 290 290 290 290 291 291
294 293 293 293 292 292 292 292 293 293 293 293 293 293 293 293 293 293 293 293 293 293 293 294 293 292 292 291 291 290 290 290 290 290 290 290 289 289 289 290 290 290 290 291 291 291 292 292 292 291 291 291 290 290 290 290 289 289 288 288 287 287 287 287 288 288 289 289 288 288 288 289 289 289 289 289 289 289 290 290 290 290 291 291 291
294 293 293 292 292 292 292 292 292 293 293 293 293 293 293 293 293 293 293 293 293 293 293 294 293 293 292 292 292 291 291 291 291 292 292 292 292 292 292 292 292 292 292 293 292 292 292 292 291 290 290 289 289 288 288 288 288 288 287 287 287 286 286 286 287 288 289 289 288 288 288 289 289 289 289 289 289 289 290 290 290 290 290 290 290
294 293 293 292 292 291 291 291 292 292 292 292 293 293 293 293 293 293 293 293 293 293 293 293 293 293 293 292 292 292 293 293 293 293 293 293 293 293 293 293 293 293 292 292 291 291 290 290 289 289 288 288 288 288 288 288 288 288 288 288 287 287 286 286 287 288 289 288 288 288 289 289 289 289 289 289 289 289 290 290 290 290 289 289 289
294 293 293 293 292 291 291 291 291 292 292 292 292 292 292 292 292 292 292 293 293 293 293 293 293 292 292 292 292 293 293 293 293 293 293 293 293 292 292 292 292 291 291 290 290 289 289 289 289 288 288 287 287 288 288 288 288 288 288 288 287 287 286 286 287 288 288 288 288 289 289 289 289 289 289 289 289 290 290 290 290 290 290 289 289
294 294 293 293 292 292 291 291 291 291 291 292 292 292 292 292 292 292 292 292 292 292 292 292 292 292 292 292 292 292 292 292 292 292 291 291 291 291 291 291 291 290 290 289 289 289 288 288 288 288 287 287 287 287 287 288 288 288 288 288 288 287 286 286 287 288 288 288 288 289 289 289 289 289 289 289 289 290 290 290 289 290 290 289 289
Wind_Speed
8 10 13 13 10 12 16 18 20 19 17 16 15 15 16 17 16 14 12 11 13 14 14 13 13 13 13 14 14 13 14 14 13 14 15 15 14 14 14 16 17 16 15 15 16 16 17 20 22 23 24 23 21 19 17 17 21 26 28 27 25 23 22 19 14 12 13 13 12 12 11 10 9 8 7 5 4 4 3 2 2 1 2 5 7
8 8 11 12 12 14 15 15 19 19 16 15 14 14 15 15 14 12 11 13 14 14 13 13 13 12 12 13 13 12 12 12 13 15 16 16 16 16 16 17 17 15 15 16 17 17 17 18 20 21 21 21 20 17 15 14 15 21 28 29 26 24 21 19 17 15 13 13 14 14 12 11 10 9 8 5 3 3 2 2 1 1 0 2 5
6 5 8 13 17 17 15 13 16 17 16 14 13 14 14 13 12 10 11 13 13 12 12 12 13 12 11 13 13 12 11 12 14 16 16 16 16 17 17 18 18 17 17 17 18 18 18 18 17 16 17 18 17 14 13 13 13 16 24 27 26 24 20 17 16 16 16 15 14 15 15 13 11 10 9 7 5 4 3 3 2 3 4 3 5
10 8 10 14 16 16 14 12 10 12 15 14 12 13 13 13 12 11 11 12 12 12 11 11 12 11 12 13 13 12 12 13 14 15 15 15 16 18 19 19 18 18 17 16 17 17 18 17 14 13 14 14 13 12 11 13 14 16 21 23 22 20 18 16 15 15 17 18 15 14 15 14 12 11 11 11 7 4 4 5 7 8 7 5 6
12 10 10 12 15 16 15 14 10 9 13 12 9 11 13 12 12 11 11 12 14 14 12 12 12 12 12 12 13 13 13 12 13 14 14 14 15 17 19 18 17 16 15 15 16 15 15 14 13 11 12 12 11 11 12 13 14 16 18 18 18 16 14 14 14 13 16 19 18 15 14 14 12 12 14 14 9 8 8 9 9 8 5 4 5
14 14 13 13 14 16 17 18 15 10 10 9 8 11 12 11 12 12 12 13 14 15 14 13 13 13 12 12 12 14 13 12 13 13 13 14 16 16 16 16 16 15 15 14 14 14 13 12 12 11 11 12 12 12 13 14 14 15 16 16 16 14 13 13 13 13 15 18 18 17 15 14 12 11 14 15 12 11 12 10 7 5 2 2 4
15 17 17 15 16 19 20 18 16 14 13 11 9 11 12 12 12 13 13 13 13 14 16 15 14 14 13 12 13 14 13 13 14 13 12 15 18 17 15 16 17 16 15 14 14 13 12 12 12 12 12 12 12 12 12 13 13 14 15 15 14 13 13 13 12 12 15 17 18 18 16 14 12 11 12 13 13 13 12 9 6 3 0 4 6
14 15 16 16 19 21 20 18 17 18 19 13 8 11 15 13 13 13 13 13 12 13 16 15 14 16 16 14 15 15 14 14 15 15 14 16 18 18 17 17 17 17 16 15 14 13 12 12 12 13 13 12 11 11 12 13 13 14 14 14 14 14 14 13 11 11 14 17 18 18 16 13 12 11 12 14 15 13 10 8 5 1 2 5 6
12 11 11 13 16 16 16 18 18 19 20 12 4 8 13 14 14 13 13 14 12 12 16 15 14 16 18 17 17 17 15 15 16 17 16 16 17 18 18 16 15 17 18 17 15 15 14 14 13 13 13 13 13 12 12 13 14 14 14 14 15 15 15 14 12 11 13 15 14 14 13 12 13 15 16 15 14 11 8 5 2 1 4 6 5
11 9 9 10 12 10 11 15 17 15 13 8 5 7 9 9 12 12 10 12 12 12 15 16 15 15 17 19 20 20 18 17 17 18 17 17 16 17 19 16 14 17 19 19 18 17 16 16 15 15 14 14 14 14 13 13 14 13 14 14 15 15 15 15 14 12 13 13 12 12 12 13 16 17 15 13 10 8 6 3 1 2 5 7 5
12 10 10 10 9 8 6 8 10 8 6 4 6 9 8 6 8 9 7 7 9 11 12 14 14 14 15 17 19 20 21 21 19 19 19 19 18 18 19 18 16 17 18 19 20 19 19 18 18 17 17 16 16 15 14 14 14 13 13 14 15 15 15 16 15 14 13 12 11 12 14 15 15 15 13 12 9 7 5 2 1 3 6 7 5
20 16 12 11 10 8 6 5 6 6 4 3 5 8 9 8 6 7 6 2 2 6 9 10 10 12 14 15 14 15 19 22 23 21 21 21 20 20 20 20 20 20 20 21 21 21 21 21 20 19 19 18 18 18 17 17 16 16 16 15 15 15 16 16 17 16 15 14 13 13 15 16 15 13 12 11 9 6 3 0 2 4 6 7 7
30 27 22 19 17 15 11 9 7 5 3 2 3 4 7 8 7 6 6 4 4 4 5 7 8 8 10 11 12 12 13 18 23 24 23 23 22 22 22 23 23 24 24 24 24 24 23 22 22 21 20 20 20 20 20 20 19 19 18 18 18 17 17 17 17 16 15 15 14 14 15 16 15 14 12 10 7 3 2 1 1 3 5 7 8
30 29 28 26 25 24 21 18 15 12 11 9 7 5 1 2 3 3 4 5 6 9 9 9 9 8 9 9 10 11 11 14 18 22 23 23 23 23 23 24 25 26 26 26 26 25 25 24 24 23 22 22 21 21 21 21 21 21 20 20 20 20 19 18 17 16 15 14 14 14 15 14 13 13 11 7 4 2 1 0 1 3 4 6 6
28 27 27 26 26 26 25 24 23 21 20 20 18 15 11 7 6 6 6 6 8 11 12 11 10 10 11 11 10 10 11 12 14 17 20 21 21 22 22 24 26 27 28 28 28 27 26 26 26 26 25 24 23 23 23 22 22 22 21 22 22 21 20 19 17 16 15 14 13 13 14 12 10 10 8 5 3 1 1 1 2 2 3 4 4
27 26 25 25 25 25 24 23 23 22 22 21 21 21 18 15 13 11 8 7 8 9 10 9 9 10 11 12 13 13 12 12 12 14 16 17 19 20 21 22 24 26 27 28 29 28 27 27 27 27 26 25 24 25 24 24 24 24 23 23 23 22 21 19 17 16 14 12 10 10 12 12 9 6 4 3 2 1 1 0 1 1 2 3 4
27 25 25 23 22 22 22 22 21 21 20 20 20 19 17 15 15 13 11 10 10 10 11 11 10 10 11 11 13 15 16 16 15 15 16 16 18 19 20 21 23 24 25 26 26 26 27 29 30 29 28 28 27 26 26 25 25 25 25 25 23 21 20 18 17 15 13 11 10 10 10 10 7 4 3 2 2 2 2 3 2 0 3 4 4
25 24 24 22 21 20 20 20 20 20 20 20 19 18 16 14 14 13 13 13 13 13 14 13 12 12 12 12 12 14 16 17 17 18 19 19 19 20 21 22 23 24 24 24 24 25 27 29 30 30 31 31 29 27 26 26 26 26 26 26 24 22 20 18 17 16 14 13 13 12 10 8 6 5 4 3 3 4 3 2 1 1 3 4 3
23 22 21 20 19 19 18 18 18 18 19 19 18 18 16 15 14 14 14 15 15 15 16 16 16 15 14 15 15 16 17 17 18 18 19 20 21 21 22 22 22 23 24 25 26 27 27 27 27 29 30 29 28 27 26 26 26 26 28 28 27 24 22 20 19 18 18 17 15 12 10 8 7 7 6 5 5 4 2 1 0 2 3 3 3
18 18 18 18 18 18 18 18 17 17 17 17 17 17 17 16 16 16 16 16 17 17 17 18 18 18 17 17 17 17 18 19 20 21 21 21 22 22 23 24 24 25 26 25 25 27 27 27 27 28 28 28 29 29 28 26 25 25 28 29 27 24 23 21 19 18 18 17 14 11 9 9 9 8 7 6 4 3 2 1 1 2 3 2 2
16 15 15 16 16 16 16 16 16 16 16 16 15 15 16 16 17 17 17 18 18 18 18 18 19 19 18 19 19 19 19 19 20 22 24 24 24 24 25 26 25 26 27 25 25 26 27 28 28 29 28 29 30 29 26 24 24 25 28 27 23 22 22 22 19 18 17 15 13 12 11 11 10 8 6 5 4 4 3 2 2 2 3 2 3
15 15 15 15 15 15 15 15 14 14 15 15 14 14 14 14 14 15 16 16 16 17 18 18 19 19 18 17 18 18 18 19 20 22 24 26 26 27 27 27 26 26 26 25 26 27 28 29 29 28 28 28 27 25 23 22 23 25 26 23 19 19 21 22 20 19 17 15 14 14 12 11 9 8 7 6 5 5 4 4 4 3 2 3 3
15 15 15 15 15 15 15 14 14 14 15 14 13 13 13 14 13 14 15 15 15 16 16 17 19 20 19 18 16 16 16 16 17 20 23 26 29 30 30 29 28 28 28 27 28 29 29 28 27 27 27 25 22 22 23 22 23 24 23 20 18 18 20 21 21 20 18 16 15 14 12 10 10 9 9 8 8 7 6 5 4 3 3 2 2
16 16 16 16 16 16 15 15 14 14 14 14 14 15 15 15 15 15 15 16 16 16 17 18 19 20 21 21 19 17 17 16 16 17 19 23 27 31 33 33 31 30 30 29 29 30 29 28 27 25 24 21 18 18 21 24 24 23 20 19 19 20 22 22 21 21 19 16 14 13 12 12 11 11 10 9 9 7 6 6 5 4 3 1 2
16 16 16 16 15 15 14 14 14 14 15 15 16 16 17 16 16 16 16 17 17 16 18 19 20 20 21 22 22 21 19 18 18 17 18 20 23 27 31 34 34 31 29 28 28 29 29 28 26 25 24 21 16 16 20 24 24 22 21 21 22 23 24 23 22 21 19 17 16 16 15 13 11 10 10 9 8 7 6 6 5 3 1 2 4
15 15 15 15 14 14 15 15 15 16 16 16 16 17 17 17 17 17 17 17 17 17 18 18 20 21 22 23 24 23 21 20 19 18 18 19 20 23 27 32 34 30 26 26 26 26 27 26 26 26 25 22 20 19 22 24 23 21 22 23 24 25 25 23 22 21 19 19 18 18 16 13 11 10 9 8 7 7 5 4 2 2 4 6 8
16 16 16 15 14 15 17 17 18 18 19 19 19 18 18 18 18 18 18 17 16 17 18 19 20 22 23 24 25 25 23 21 19 17 18 19 19 20 24 29 31 27 25 25 24 22 24 27 30 28 24 21 21 22 23 23 23 23 24 24 24 23 22 21 21 20 20 20 19 18 15 13 12 10 9 7 6 6 3 1 3 5 6 8 9
17 17 17 16 15 16 17 18 18 19 19 19 19 19 19 18 18 18 17 16 16 17 18 19 20 21 22 24 26 27 26 23 19 17 17 19 22 22 23 25 26 24 23 23 24 22 21 24 27 28 25 23 23 25 25 26 26 26 25 24 23 22 21 20 20 20 20 19 19 17 15 13 11 9 7 6 5 5 3 3 4 6 7 8 10
17 18 17 17 16 16 17 17 17 17 18 18 18 18 18 18 18 17 15 14 16 17 18 19 19 19 20 22 22 24 26 24 20 16 16 17 21 24 23 22 22 21 19 19 20 21 20 20 22 25 29 29 29 29 29 28 27 26 25 23 23 22 21 21 21 20 19 18 17 15 13 10 9 7 6 6 5 4 3 4 5 6 7 9 10
15 16 16 17 17 18 18 18 18 18 19 20 20 21 20 19 18 17 16 15 16 17 17 19 19 19 19 20 19 20 24 25 21 18 15 15 18 22 22 20 18 16 15 15 17 20 22 24 23 21 25 31 32 31 30 28 27 26 25 23 23 22 21 20 19 18 17 15 13 11 8 7 7 6 5 5 4 2 3 5 6 7 8 10 10
12 14 15 16 17 17 18 18 19 19 20 20 22 23 24 23 21 19 17 17 17 17 17 19 19 19 19 20 20 20 22 21 19 18 16 14 16 20 20 19 17 16 15 16 18 21 25 28 24 18 17 23 26 26 27 28 27 26 25 23 21 21 20 19 18 17 15 12 10 8 6 6 6 6 5 4 3 2 3 4 5 7 8 8 9
11 13 14 15 15 16 16 17 18 19 20 20 21 22 23 24 25 24 21 19 19 19 19 19 19 18 17 18 20 21 21 19 17 16 15 14 16 19 19 17 17 16 16 16 19 23 26 28 25 18 16 22 25 24 25 28 28 26 26 23 21 19 18 17 16 14 12 10 8 7 7 7 6 6 4 3 2 2 2 3 3 4 5 7 9
12 12 12 13 14 15 15 16 18 19 20 20 20 20 21 21 22 24 25 23 21 20 18 17 18 19 19 18 20 20 20 18 16 15 15 14 15 18 18 16 15 15 17 19 20 24 27 27 26 22 20 23 27 24 23 27 28 25 23 22 21 19 18 16 14 12 10 9 9 8 8 8 7 6 5 4 3 3 2 1 2 3 4 7 10
10 10 10 11 13 14 15 17 19 19 19 19 18 19 19 19 18 19 22 23 23 22 20 20 20 21 21 18 17 17 18 17 14 15 15 14 14 17 18 16 14 15 19 21 22 25 27 26 27 27 25 24 26 26 23 25 26 24 22 22 21 20 19 16 14 13 11 10 10 9 9 7 6 6 6 5 4 3 3 2 2 3 5 7 8
7 8 9 10 11 13 15 17 17 17 17 18 18 19 19 20 20 19 19 21 23 24 26 25 23 22 20 16 14 15 16 15 13 13 15 14 13 17 19 18 19 19 20 20 21 24 26 26 27 29 28 28 30 29 25 24 24 24 23 23 22 21 19 17 15 13 12 10 10 10 9 8 7 7 6 5 4 4 4 2 3 4 5 5 7
6 7 8 8 11 14 16 15 15 15 16 17 18 20 21 21 22 22 21 21 21 24 27 26 24 22 19 14 12 13 13 12 11 11 13 14 13 15 17 19 23 23 19 17 18 20 23 25 27 27 27 28 30 28 26 26 25 24 23 23 22 21 19 17 15 13 12 11 11 11 10 9 8 6 5 5 5 4 2 3 3 3 4 5 7
7 7 7 8 11 14 15 15 14 14 16 18 19 20 22 22 22 22 22 22 21 22 24 24 24 24 20 16 14 13 11 10 10 9 10 12 14 15 14 14 20 22 18 16 18 20 22 25 26 26 26 27 27 27 27 26 24 22 22 22 22 21 19 17 15 14 13 13 12 10 9 8 7 5 5 5 4 3 3 3 2 3 5 7 9
7 7 7 9 12 13 14 15 15 15 17 19 19 20 21 22 22 21 20 20 20 20 21 22 23 23 21 18 17 15 12 12 11 9 8 8 11 13 11 10 13 17 17 17 18 21 23 23 22 21 23 24 25 26 26 24 23 22 23 23 21 20 19 17 16 15 13 13 11 9 8 7 6 5 4 4 5 4 3 2 2 4 6 7 9
7 6 6 9 12 13 13 15 15 16 17 17 17 18 19 20 20 19 17 16 16 16 17 19 19 18 17 17 16 15 13 12 11 8 7 6 8 7 5 7 10 12 14 15 16 19 22 21 18 18 21 22 24 25 25 24 23 24 24 24 22 20 19 18 16 15 13 12 10 8 6 5 5 5 5 5 5 4 2 2 1 3 5 8 9
8 5 5 8 12 13 12 13 13 14 14 14 14 15 15 17 18 16 12 11 11 12 14 15 15 14 14 13 13 12 10 9 8 8 5 6 8 5 3 5 8 9 10 12 12 15 18 18 17 18 20 21 22 23 24 24 25 26 25 24 21 20 18 17 15 14 12 10 8 6 5 5 5 6 6 5 4 4 3 3 2 4 7 8 8
8 6 5 7 10 11 11 11 12 12 13 13 13 13 12 15 16 13 8 7 9 10 11 12 12 12 12 11 10 10 9 6 5 5 3 3 6 5 5 6 8 9 10 11 11 12 14 14 15 18 20 21 23 24 25 26 27 27 25 22 21 20 18 16 14 13 11 9 7 6 6 5 6 6 7 6 5 3 3 4 5 6 6 5 7
7 6 5 5 8 10 11 11 11 11 12 13 12 11 11 13 15 12 9 8 9 9 10 10 10 10 11 11 10 8 7 6 4 3 3 3 2 1 4 6 7 8 11 12 12 12 14 16 19 21 24 25 26 27 28 28 27 25 23 21 21 20 18 16 14 12 10 8 8 7 6 6 6 7 8 7 4 2 3 4 5 5 4 5 9
4 4 4 4 6 8 9 10 11 12 12 12 11 10 9 11 14 14 11 10 10 10 10 10 10 11 11 11 9 8 8 8 7 7 6 6 7 7 8 9 9 9 10 12 13 13 16 20 24 27 28 27 26 26 25 24 22 21 21 21 21 20 18 16 14 11 9 8 7 7 7 7 8 8 8 6 2 2 3 4 4 2 3 7 10
2 2 2 3 5 6 7 8 10 11 12 12 11 9 9 10 13 14 13 12 12 12 11 11 11 12 13 13 12 12 13 13 13 13 12 12 13 13 12 11 10 11 12 14 15 18 21 25 27 28 28 26 23 21 20 18 18 18 19 19 19 19 17 14 12 10 8 7 7 7 7 7 8 9 8 5 2 3 3 1 2 4 7 10 11
2 2 2 3 5 5 6 7 9 10 10 11 12 11 10 10 11 11 10 11 12 12 11 12 13 15 16 17 17 17 18 18 18 18 18 18 19 19 19 19 20 21 22 24 25 26 27 27 27 26 25 23 21 19 18 18 18 17 17 16 16 15 14 11 10 9 8 7 7 7 7 7 8 9 7 4 3 4 2 2 5 8 9 9 8
4 4 4 4 5 6 6 6 6 7 9 11 13 13 12 11 11 10 9 9 11 12 11 13 15 17 19 20 20 21 21 22 22 23 24 24 25 25 26 27 28 28 29 30 30 30 29 28 26 25 24 22 21 20 20 19 18 16 14 12 11 11 10 9 8 8 8 8 7 7 7 9 8 7 6 3 3 3 1 4 9 9 6 5 4
5 6 5 5 6 7 8 7 5 6 8 10 11 11 11 11 11 11 10 10 11 12 11 12 14 16 19 21 22 24 25 26 27 28 28 28 28 28 28 28 29 29 29 28 27 27 26 24 23 22 20 19 19 18 17 16 14 12 11 10 9 9 8 8 8 8 8 7 6 6 8 9 8 6 5 4 3 2 1 6 8 6 4 3 3
3 5 5 5 5 7 8 8 7 7 9 10 10 10 10 10 10 11 11 11 11 12 11 11 12 14 16 19 21 23 25 25 25 25 25 24 23 22 21 21 21 21 21 20 19 19 19 18 18 17 17 16 15 14 14 13 12 11 10 10 9 8 7 7 8 8 8 7 6 7 9 10 9 6 5 3 2 0 3 6 6 6 5 6 5
2 3 4 4 5 6 7 8 8 7 8 9 9 9 9 10 11 11 11 10 11 12 12 11 12 13 14 16 18 19 19 19 19 18 18 17 17 16 16 16 16 16 16 17 17 17 17 17 17 16 16 15 14 13 13 12 11 11 10 10 9 8 7 7 8 8 8 7 7 8 10 11 9 6 5 3 2 1 3 6 6 4 4 7 6
3 3 2 3 4 6 7 7 7 7 7 8 8 9 9 9 9 10 9 9 10 12 12 12 12 13 13 15 16 16 16 16 16 16 16 16 16 15 15 16 16 16 16 16 16 16 16 16 16 15 14 13 13 12 12 11 10 9 8 8 8 8 7 7 8 8 8 8 8 9 10 9 8 5 4 2 2 1 2 5 4 2 3 4 5
6 4 2 2 3 4 6 6 6 6 6 6 7 7 7 8 8 9 8 8 9 11 12 12 13 13 13 13 14 15 16 16 16 16 16 16 15 15 15 15 15 15 14 14 14 14 15 14 14 13 12 11 11 10 9 9 9 8 8 8 8 7 7 7 8 9 9 9 9 10 9 8 6 4 2 2 2 1 2 3 3 3 2 3 6
Wind_Direction
129 96 72 74 99 129 148 159 161 161 161 162 162 162 165 169 169 168 168 169 166 162 165 171 170 169 167 163 162 160 161 163 163 164 161 160 162 157 150 148 145 143 145 146 148 147 137 131 133 139 143 144 146 150 158 173 190 198 198 194 190 187 183 171 156 161 181 191 187 178 178 182 183 186 182 158 135 140 150 166 190 186 81 50 43
128 102 82 86 109 132 145 155 159 161 162 163 165 166 167 170 169 166 165 164 165 168 175 182 180 176 170 166 166 163 164 169 169 168 165 164 166 161 153 151 151 152 154 153 155 158 153 143 138 140 141 141 142 144 145 148 164 185 195 196 190 185 185 178 164 159 167 180 184 182 187 198 201 203 206 197 171 170 190 210 228 235 112 53 47
145 155 137 135 143 152 150 143 149 156 159 161 167 169 169 170 168 164 163 164 169 177 183 186 184 183 179 174 170 167 168 166 165 168 169 171 172 169 162 157 157 159 159 157 157 158 157 153 148 147 145 140 139 142 146 147 146 164 183 188 184 180 186 188 177 165 161 168 179 186 193 204 213 214 213 214 214 217 227 223 191 160 139 100 61
114 113 118 128 142 149 145 140 142 147 151 156 167 171 170 172 169 162 162 167 173 180 183 186 187 188 186 180 175 174 173 169 167 171 174 174 174 173 169 163 161 163 163 162 162 161 157 152 149 153 155 148 145 149 152 152 151 156 167 176 179 181 189 194 188 177 169 170 179 188 194 207 219 218 215 218 216 205 187 166 154 146 132 93 60
123 126 126 137 154 160 157 164 171 153 142 146 163 176 176 175 174 168 166 172 180 186 187 189 192 191 187 183 181 181 180 178 178 178 177 177 175 173 172 168 166 170 170 167 167 166 161 153 148 155 162 159 158 163 163 159 158 160 165 173 180 184 188 191 192 188 181 179 182 189 197 208 218 219 219 214 191 156 151 149 144 141 127 85 56
131 142 143 142 157 169 169 174 179 166 150 156 171 181 184 185 182 179 177 179 186 194 196 195 197 195 190 186 186 187 186 184 184 183 184 184 180 178 178 176 173 175 178 177 175 175 172 166 162 165 170 170 167 166 166 163 162 163 167 173 178 179 180 185 193 196 192 189 189 193 201 208 214 219 219 213 195 171 162 155 150 150 134 55 28
132 138 145 143 150 162 166 171 173 164 165 181 192 190 191 195 192 187 187 189 193 200 201 201 203 200 193 187 188 190 190 190 190 187 183 182 182 181 180 178 176 178 184 188 189 189 189 187 184 182 183 184 179 177 178 177 176 174 174 176 178 177 174 177 185 192 196 196 197 201 207 213 220 222 212 204 196 185 178 175 176 180 299 349 357
134 136 146 149 151 158 162 166 170 169 171 182 206 206 200 201 198 192 191 195 199 200 198 199 205 205 198 192 193 195 195 196 195 189 181 181 184 183 180 179 180 186 192 196 199 201 202 203 202 199 199 199 196 195 197 196 194 191 189 188 187 183 178 177 179 182 191 198 203 209 215 219 219 206 188 185 184 182 187 194 194 198 355 2 1
123 127 137 147 154 160 164 168 171 174 176 178 192 203 200 201 200 196 197 201 203 201 198 199 207 210 206 201 199 200 200 197 194 192 187 188 190 189 186 184 186 193 197 199 200 202 203 203 205 208 209 209 209 209 208 209 209 204 200 199 198 195 191 191 192 186 187 193 200 207 209 203 193 179 171 177 183 180 182 188 179 359 352 360 3
91 96 100 119 142 155 170 180 179 176 176 172 157 171 184 190 190 190 195 202 205 205 202 203 210 216 213 208 204 205 203 197 194 197 197 197 199 197 194 193 192 194 197 198 200 203 205 205 205 208 211 212 213 214 213 217 220 216 212 208 206 206 204 203 205 201 198 198 199 202 197 183 179 178 174 177 181 176 173 176 163 344 343 351 3
71 71 75 89 108 122 148 178 184 180 175 175 183 190 192 181 172 171 173 189 200 202 202 207 215 220 218 213 211 212 211 205 201 202 203 202 203 201 200 204 204 202 203 203 204 206 208 209 210 211 212 212 213 217 219 222 226 227 226 221 217 217 217 215 213 211 211 209 200 198 193 180 175 179 177 170 168 170 172 176 343 350 354 360 7
71 69 71 77 81 92 111 130 154 171 182 215 223 212 210 216 210 187 173 168 217 208 206 211 218 223 222 220 219 220 221 216 211 209 208 207 207 205 204 206 207 210 213 213 214 215 214 213 213 214 214 214 215 217 220 223 228 232 234 234 233 231 228 226 221 217 217 213 200 193 190 180 170 171 173 169 166 168 167 149 354 360 7 10 11
70 69 69 68 64 67 78 91 112 135 151 207 217 197 202 221 239 230 222 258 309 300 253 228 224 226 227 230 232 232 232 225 217 216 215 212 211 212 212 211 210 212 215 218 219 221 220 218 215 214 215 216 217 218 221 223 225 226 229 232 233 233 232 230 226 223 224 221 207 194 189 185 178 174 175 176 175 174 170 158 13 16 11 10 13
65 64 62 60 57 60 64 67 70 69 64 62 62 57 62 243 272 291 281 276 291 307 297 267 250 244 237 239 243 240 237 231 223 219 219 218 218 219 220 219 218 217 219 222 223 224 225 223 221 220 217 216 219 222 223 223 223 222 223 224 225 226 227 225 224 223 224 224 218 202 192 192 189 180 176 177 183 197 204 212 20 23 14 16 23
59 57 56 53 51 53 55 56 56 55 54 53 51 45 37 23 11 3 348 319 297 302 303 288 276 269 257 249 248 244 238 234 228 223 222 224 226 226 226 226 225 225 226 225 222 222 225 226 225 226 225 224 227 229 228 227 225 223 221 220 219 219 219 218 219 219 217 214 214 202 188 185 185 179 173 172 178 205 258 308 7 29 29 37 47
51 50 48 45 44 44 44 46 46 44 44 45 45 42 39 33 28 20 3 339 320 319 320 313 302 293 280 261 250 247 246 245 243 235 230 229 229 229 230 230 230 231 231 228 222 221 226 230 229 229 233 237 239 238 237 234 229 225 222 219 217 215 215 214 214 217 216 207 203 196 183 177 180 178 169 169 188 237 258 195 114 89 46 41 42
46 43 39 36 34 34 34 36 36 35 35 35 33 31 29 27 25 18 4 351 346 345 341 335 322 308 299 283 261 251 248 249 254 254 249 243 239 237 236 236 236 236 236 235 230 225 226 231 234 235 241 247 247 244 241 237 231 226 222 219 216 213 214 214 212 212 211 203 196 192 181 175 175 170 167 189 214 219 198 166 150 53 30 37 28
46 43 39 36 32 29 27 27 26 25 25 25 23 19 15 12 7 2 357 350 345 344 341 336 329 321 315 307 293 274 259 253 255 259 259 256 253 251 249 248 245 244 244 245 242 234 229 231 236 239 244 248 249 246 243 238 232 227 223 218 214 211 210 208 202 193 187 184 181 177 170 166 164 162 170 186 185 187 197 192 175 36 46 52 25
49 48 46 42 39 34 30 26 23 21 18 16 14 11 7 1 352 347 346 343 339 337 336 332 327 324 322 318 313 302 285 270 262 262 262 261 260 258 257 255 254 254 255 251 244 240 237 236 237 239 241 244 246 247 247 242 234 228 223 216 210 208 206 201 194 186 180 177 174 170 166 161 160 163 167 168 171 188 223 253 82 71 66 61 27
47 46 43 41 38 35 32 30 26 22 16 10 7 3 358 352 346 341 339 337 335 331 331 331 325 317 315 314 313 310 303 290 274 266 262 261 260 260 258 257 257 260 262 256 246 241 239 237 236 238 240 243 247 248 248 243 235 226 219 214 211 209 202 194 192 189 183 179 174 170 166 162 161 163 165 167 179 204 226 220 70 54 55 54 40
40 37 33 32 31 29 27 25 23 21 16 9 4 360 355 351 347 343 338 336 334 330 329 330 327 318 312 311 310 308 307 302 290 277 269 263 260 258 257 258 260 263 262 257 249 243 238 236 238 240 242 246 248 246 241 236 231 224 217 213 214 211 199 189 186 185 181 177 171 165 163 164 166 167 172 184 196 198 188 137 86 52 41 52 53
35 33 30 28 26 22 20 18 18 17 12 9 8 7 5 360 354 351 347 342 339 336 332 330 328 324 317 314 316 313 307 304 299 290 282 275 269 264 262 264 266 265 261 256 250 245 241 241 243 245 246 246 243 238 232 226 224 223 218 212 209 204 193 183 179 177 175 172 166 163 164 168 170 170 172 178 171 157 140 115 100 89 80 80 68
24 22 21 20 18 15 14 14 16 15 13 13 14 14 13 8 4 2 359 354 352 347 341 336 333 330 324 319 320 322 317 309 301 292 285 280 274 270 268 267 267 264 260 256 253 250 246 244 242 243 243 238 234 232 227 218 215 217 218 212 202 192 184 180 175 170 167 165 161 161 163 165 166 161 159 158 150 139 134 132 133 138 133 107 74
10 10 10 10 9 10 11 13 15 18 19 17 16 13 11 6 4 3 0 358 358 354 349 345 340 336 333 326 321 321 321 318 311 302 290 279 273 271 269 265 262 260 258 256 255 252 247 241 238 236 231 224 228 233 222 210 207 207 208 208 200 187 179 176 170 162 159 159 158 155 154 156 158 153 149 148 147 145 149 154 156 156 146 106 29
8 8 8 7 5 6 8 10 11 13 13 12 12 11 8 4 1 360 357 356 357 355 351 348 344 341 338 333 328 322 317 315 315 314 306 289 276 272 269 264 259 258 256 253 250 248 245 239 231 224 217 214 222 224 210 203 203 201 200 202 195 183 176 171 164 159 157 156 153 149 146 147 147 142 139 141 142 144 146 146 146 141 96 4 343
12 11 10 8 6 5 5 4 4 2 2 2 2 1 0 358 355 353 352 352 353 351 349 348 346 341 336 334 332 326 318 312 310 314 317 306 287 277 273 267 260 256 250 245 242 243 244 236 222 213 212 215 217 210 197 193 194 190 187 187 182 176 173 168 163 162 160 156 153 148 143 141 137 133 134 139 138 136 133 133 123 16 351 341 338
9 7 4 1 358 356 355 354 353 352 350 349 348 347 348 348 346 345 345 345 344 344 343 342 341 337 333 331 331 327 320 312 307 310 321 320 307 294 280 269 262 256 245 236 232 234 234 224 212 207 206 204 202 197 188 180 176 169 166 168 169 168 168 168 168 168 165 159 153 147 142 140 138 136 139 142 136 126 113 67 8 360 352 344 344
9 9 7 3 359 354 351 349 346 345 344 344 344 344 343 341 339 336 334 333 332 333 335 334 332 330 327 327 327 325 321 313 305 307 316 318 316 308 293 276 269 264 251 235 223 221 223 215 203 196 190 185 182 180 173 167 164 161 159 161 163 162 164 166 167 165 162 158 152 146 144 144 144 144 145 140 126 110 80 26 11 6 356 350 354
5 7 7 5 1 355 350 348 344 342 340 340 342 343 341 339 334 328 323 321 319 320 323 327 327 323 320 322 325 325 321 313 303 299 304 305 304 304 298 287 278 275 267 247 228 220 217 207 192 182 177 174 173 169 164 162 160 159 160 161 160 160 163 165 162 159 157 157 153 149 146 145 145 147 143 130 116 97 49 13 10 9 2 0 2
353 356 356 354 350 345 343 342 341 339 337 337 338 338 337 336 333 326 320 315 313 311 311 315 319 316 312 314 318 321 321 316 302 289 291 296 295 294 293 287 277 269 262 245 224 211 200 191 187 185 177 171 169 166 162 160 157 153 154 157 157 158 161 162 160 157 156 156 153 149 148 149 146 145 141 132 118 85 21 8 10 10 6 5 5
345 346 345 344 342 339 337 336 337 338 338 337 335 332 329 329 328 325 321 316 314 313 308 307 310 310 306 306 307 312 318 317 301 283 280 287 291 290 287 277 264 254 246 229 209 197 189 182 184 196 189 169 163 161 157 157 156 153 152 154 155 157 158 158 157 157 155 152 147 144 150 155 149 144 144 140 122 68 23 17 16 12 11 10 6
343 339 339 341 341 339 337 336 338 339 337 334 331 327 325 325 323 321 319 314 311 310 309 308 310 311 307 302 302 307 314 313 300 283 274 277 284 284 277 264 252 241 231 219 202 193 189 183 180 190 188 168 162 163 161 160 159 155 152 151 152 155 156 155 155 156 153 147 143 145 150 149 143 140 140 133 121 98 63 38 20 14 16 12 2
333 330 335 340 337 335 338 339 338 337 334 331 328 326 325 323 319 318 318 318 317 315 314 315 316 317 315 305 297 301 311 312 300 283 274 275 283 278 261 246 241 230 215 211 203 191 188 186 181 181 180 169 165 169 169 162 158 156 154 152 151 152 152 151 151 150 145 141 141 143 141 138 136 137 136 132 128 119 103 77 39 20 7 4 360
330 327 333 334 328 329 336 337 334 333 331 327 322 320 321 322 319 317 317 319 321 320 319 320 319 319 320 313 299 299 310 314 304 288 280 279 276 264 244 225 218 214 207 208 204 192 187 187 181 177 178 172 168 171 172 164 158 157 156 152 151 151 151 152 152 149 143 139 140 139 134 134 138 141 141 143 141 131 128 118 57 15 1 4 6
331 331 331 329 327 332 335 333 330 329 327 323 319 317 319 320 319 317 314 313 313 313 314 319 322 322 322 319 308 305 310 312 307 296 290 282 259 238 226 209 196 193 196 200 199 191 188 186 181 178 179 176 172 173 171 163 158 157 155 154 155 155 153 152 151 147 143 143 145 143 137 136 140 141 142 146 145 139 128 91 34 14 10 16 13
333 333 332 333 337 338 336 332 329 328 327 326 325 324 324 324 321 319 315 311 309 309 312 317 323 325 327 331 326 315 310 311 305 289 283 277 248 220 214 206 193 187 187 189 188 186 187 186 182 179 178 175 174 173 168 161 159 159 159 162 161 157 155 153 150 147 147 147 146 143 140 140 142 143 143 142 140 131 101 57 40 30 19 13 4
339 334 336 343 342 339 336 334 334 335 335 335 334 333 332 331 326 322 316 312 311 312 313 317 324 327 330 343 346 331 322 328 322 296 284 277 247 223 225 221 199 188 184 184 182 183 183 180 177 176 175 175 173 172 169 166 164 164 166 167 162 156 155 154 152 151 150 146 142 140 140 139 139 139 141 138 128 105 83 72 52 17 8 7 1
346 336 337 348 347 340 336 335 335 338 339 340 340 338 335 332 329 325 320 317 318 319 318 320 324 325 329 342 350 341 334 341 336 314 296 277 237 222 238 245 210 188 180 177 179 180 178 174 173 175 175 174 173 171 171 170 170 169 167 162 156 153 153 151 148 148 146 142 138 138 138 136 132 129 127 120 108 100 91 63 20 11 11 8 359
347 337 338 351 355 351 344 339 338 340 341 343 344 342 338 336 334 331 327 326 326 326 324 322 324 327 333 342 347 344 338 337 334 317 285 242 209 203 231 240 217 196 183 177 178 179 178 177 178 176 174 174 177 177 174 171 170 168 164 158 155 153 151 147 145 144 143 141 140 139 142 142 133 123 114 106 103 101 83 52 35 13 1 352 346
345 340 343 356 4 5 1 358 358 359 358 358 357 352 347 347 346 344 341 340 338 333 330 327 327 333 342 346 349 353 352 346 344 340 310 224 203 207 253 250 236 222 199 183 179 180 180 179 179 179 178 179 180 178 174 169 166 165 162 160 157 152 148 146 145 144 145 145 146 149 160 162 150 142 138 127 113 97 72 53 15 344 344 343 339
341 340 342 356 11 17 17 18 21 19 16 16 15 10 3 360 1 2 2 359 351 342 340 342 343 349 360 4 3 7 15 18 8 3 6 187 199 236 277 273 258 238 209 186 177 181 186 187 185 183 181 178 175 172 168 164 162 161 161 158 154 149 147 148 149 150 151 152 156 164 168 163 158 159 155 140 120 95 45 16 1 356 355 348 334
335 341 344 1 22 26 25 26 27 22 19 23 26 24 12 6 11 18 23 22 18 8 3 7 11 16 25 29 24 26 42 55 56 59 83 107 125 210 234 221 212 207 198 189 184 184 184 180 176 172 168 165 165 165 161 158 157 157 156 153 151 150 150 149 151 154 156 156 160 164 158 146 142 144 142 136 122 65 16 19 25 25 10 342 335
334 354 5 16 32 35 31 27 24 23 25 30 33 33 26 22 29 39 44 43 37 31 26 30 37 44 51 54 54 61 73 78 79 87 97 107 119 139 164 176 177 181 186 186 185 179 168 159 156 155 154 154 156 157 155 155 156 155 153 153 152 152 152 153 154 157 161 161 160 158 149 142 138 140 145 147 125 49 46 53 54 38 340 334 338
351 23 25 19 30 39 36 28 25 28 36 43 45 46 45 43 45 51 54 50 42 38 41 50 58 63 69 73 77 82 86 89 94 100 106 111 116 121 128 135 139 143 147 151 155 155 150 145 144 145 145 146 149 150 149 152 156 157 156 156 154 154 156 158 158 160 164 165 160 155 151 146 143 148 159 160 101 72 81 69 344 315 319 330 336
32 31 23 18 25 32 33 29 27 30 42 54 59 59 58 56 52 51 51 50 48 50 58 67 74 79 81 83 86 89 91 93 96 99 103 105 105 106 108 112 116 119 122 126 132 138 138 138 139 139 137 138 141 141 142 144 147 149 152 155 156 156 158 160 162 165 169 166 159 156 157 155 150 152 162 159 89 81 96 342 330 329 330 334 334
63 56 54 47 39 36 34 30 30 36 50 63 69 69 68 65 60 54 53 57 60 64 72 78 82 85 87 89 90 91 93 94 96 97 98 99 99 99 103 107 110 111 112 115 119 123 125 126 127 127 126 127 130 132 134 135 135 135 139 144 149 151 153 158 166 171 170 165 155 150 156 163 161 156 156 152 114 106 101 334 339 345 349 349 346
71 70 75 69 52 42 37 38 50 63 66 70 77 80 77 74 69 67 69 75 77 79 84 87 88 89 92 94 95 94 94 94 94 95 95 95 94 93 95 99 102 104 105 106 108 111 113 115 117 119 121 124 126 126 126 125 125 126 128 129 132 136 143 152 161 164 163 157 147 140 152 164 168 161 152 151 145 137 345 342 354 11 28 23 8
84 80 84 80 63 49 41 45 63 78 79 79 84 85 80 77 74 72 73 81 89 94 96 96 96 98 99 100 100 100 100 99 97 97 96 95 94 93 91 91 91 93 95 96 99 102 106 110 115 120 123 124 124 123 121 120 120 119 117 114 114 117 126 142 155 158 155 146 135 135 145 154 160 163 162 158 157 164 348 2 27 56 46 21 8
133 99 88 79 71 62 55 55 63 73 81 85 88 88 85 81 77 72 72 82 98 107 109 108 108 109 110 109 109 109 108 106 104 101 99 97 95 93 91 88 87 88 90 94 99 104 109 114 117 118 119 118 117 117 117 117 116 115 114 111 108 106 113 135 152 154 147 135 127 134 144 150 155 162 168 169 176 206 1 22 48 66 30 10 4
183 150 113 87 77 76 75 73 69 69 76 81 84 84 85 85 83 79 79 91 107 113 116 118 119 117 115 115 115 114 111 108 105 104 103 102 101 99 97 96 97 98 100 105 110 114 117 117 116 115 114 113 112 111 111 111 112 116 121 122 118 111 112 127 141 143 137 128 125 133 144 149 151 157 167 177 188 196 26 32 34 18 348 355 357
190 174 144 111 95 90 89 85 77 70 67 70 75 79 80 85 91 93 94 103 114 119 121 123 123 122 122 122 121 117 113 111 110 109 109 109 109 109 108 109 110 111 113 117 121 122 121 119 117 115 113 110 107 106 105 104 108 114 120 124 128 126 118 121 133 137 131 126 127 135 143 147 149 152 159 158 145 72 27 18 2 343 335 345 347